Location: *
(57.8420°S, 159.8600°W)
Time: 04:18:25
(UTC+00:00)

Meteor 2-21 Rocket - Pass Details

Date: 18 May 2021
Orbit: 936 x 967 km, 82.6° (Epoch: 23 June)

Event Time Altitude Azimuth Distance (km) Brightness Sun altitude
Rises 05:19:18 0° 359° (N) 3,662 7.5 -22.2°
Reaches altitude 10° 05:21:48 10° 1° (N) 2,721 6.8 -22.6°
Maximum altitude 05:28:00 70° 83° (E) 1,043 4.4 -23.4°
Drops below altitude 10° 05:34:15 10° 164° (SSE) 2,739 6.7 -24.2°
Sets 05:36:46 0° 166° (SSE) 3,687 7.4 -24.6°
